Regional Weather Roundup
Issued by NWS

Home | Current Version | Previous Version | Text Only | Print | Product List | Glossary On
Versions: 1 2 3 4 5 6 7 8 9 10 11 12 13 14 15 16 17 18 19 20 21 22 23 24 25 26 27 28 29 30 31 32 33 34 35 36 37 38 39 40 41 42 43 44 45 46 47 48 49 50
000
ASUS43 KDTX 161810
RWRMI
MICHIGAN HOURLY REGIONAL WEATHER ROUNDUP
NATIONAL WEATHER SERVICE DETROIT/PONTIAC MI
200 PM EDT MON MAY 16 2022

NOTE: "FAIR" INDICATES FEW OR NO CLOUDS BELOW 12,000 FEET WITH NO
SIGNIFICANT WEATHER AND/OR OBSTRUCTION TO VISIBILITY.

MIZ047>049-052>055-059>063-066>070-074>076-081>083-161900-
SOUTHEAST LOWER MICHIGAN

CITY           SKY/WX    TMP DP  RH WIND       PRES   REMARKS
ADRIAN         MOSUNNY   72  48  42 NW14G20   29.78F
6HR MIN TEMP:  54; 6HR MAX TEMP:  72;

ALMA           MOSUNNY   74  32  21 W13G22    29.73F
6HR MIN TEMP:  56; 6HR MAX TEMP:  74;

ANN ARBOR      MOSUNNY   71  44  37 NW14G22   29.75F
BAD AXE        PTSUNNY   65  50  57 SW9       29.72F
6HR MIN TEMP:  52; 6HR MAX TEMP:  66;

CARO           MOSUNNY   70  52  52 W6        29.73F
DETROIT CITY   PTSUNNY   70  54  56 SW8       29.74F
6HR MIN TEMP:  57; 6HR MAX TEMP:  71;

DETROIT        MOSUNNY   74  48  39 W10       29.74F
6HR MIN TEMP:  58; 6HR MAX TEMP:  74;

FLINT          MOSUNNY   71  50  47 NW8G23    29.74F
6HR MIN TEMP:  54; 6HR MAX TEMP:  72;

GROSSE ILE     MOSUNNY   62  58  87 S9        29.75F
6HR MIN TEMP:  55; 6HR MAX TEMP:  64;

HILLSDALE      PTSUNNY   70  42  36 W16G22    29.79S
6HR MIN TEMP:  53; 6HR MAX TEMP:  71;

HOWELL         MOSUNNY   73  41  31 W15       29.75F
6HR MIN TEMP:  54; 6HR MAX TEMP:  73;


CITY           SKY/WX    TMP DP  RH WIND       PRES   REMARKS
JACKSON        MOSUNNY   73  39  29 W18G29    29.77F
6HR MIN TEMP:  55; 6HR MAX TEMP:  73;

LAMBERTVILLE   MOSUNNY   72  54  53 W13       29.76F
6HR MIN TEMP:  55; 6HR MAX TEMP:  72;

LANSING        MOSUNNY   73  43  33 W13G24    29.76F
6HR MIN TEMP:  56; 6HR MAX TEMP:  73;

LAPEER         MOSUNNY   69  50  49 SW9       29.73F
6HR MIN TEMP:  52; 6HR MAX TEMP:  70;

MASON          PTSUNNY   72  44  35 W17G26    29.76F
6HR MIN TEMP:  55; 6HR MAX TEMP:  73;

MONROE         MOSUNNY   70  54  56 W9G17     29.75F
6HR MIN TEMP:  55; 6HR MAX TEMP:  73;

MT. CLEMENS    MOSUNNY   66  60  82 S9        29.73F
6HR MIN TEMP:  52; 6HR MAX TEMP:  66; 6HR PCP:  0.02;

PONTIAC        PTSUNNY   71  45  39 NW13      29.74F
6HR MIN TEMP:  55; 6HR MAX TEMP:  72;

PORT HOPE        N/A     61  29  29 VRB7      29.71F
6HR MIN TEMP:  51; 6HR MAX TEMP:  61;

PORT HURON     PTSUNNY   66  50  55 SW3       29.74F
TRI CITIES     PTSUNNY   75  40  28 W21G30    29.71F
6HR MIN TEMP:  56; 6HR MAX TEMP:  75;

MIDLAND        CLOUDY    73  32  22 NW9G18    29.71S
6HR MIN TEMP:  56; 6HR MAX TEMP:  75;

TROY           MOSUNNY   71  43  36 W9        29.75F
SAGINAW HB     MOSUNNY   72  50  45 W8        29.71F
6HR MIN TEMP:  57; 6HR MAX TEMP:  72;

$$
MIZ043>046-050>051-056>058-064>065-071>073-077>080-161900-
SOUTHWEST LOWER MICHIGAN

CITY           SKY/WX    TMP DP  RH WIND       PRES   REMARKS
BATTLE CREEK   MOSUNNY   74  40  29 W21G31    29.80S
6HR MIN TEMP:  56; 6HR MAX TEMP:  74;

BENTON HARBOR  SUNNY     69  48  47 W14       29.86S
6HR MIN TEMP:  56; 6HR MAX TEMP:  70;

BIG RAPIDS     MOSUNNY   72  38  28 W22G29    29.76S
6HR MIN TEMP:  55; 6HR MAX TEMP:  72;

COLDWATER      PTSUNNY   71  45  38 NW17G24   29.81S
6HR MIN TEMP:  53; 6HR MAX TEMP:  72;

FREMONT        FAIR      72  36  26 NW15G25   29.78S
6HR MIN TEMP:  53; 6HR MAX TEMP:  73;

HOLLAND        SUNNY     67  45  45 W12G22    29.84S
6HR MIN TEMP:  56; 6HR MAX TEMP:  67;

GRAND RAPIDS   MOSUNNY   71  42  35 W20G28    29.79S
6HR MIN TEMP:  55; 6HR MAX TEMP:  73;

IONIA          FAIR      74  35  23 W21G28    29.76S
6HR MIN TEMP:  55; 6HR MAX TEMP:  74;

KALAMAZOO      MOSUNNY   74  43  32 W18G29    29.83R
6HR MIN TEMP:  57; 6HR MAX TEMP:  74;

LUDINGTON      SUNNY     63  45  51 W8        29.79S
6HR MIN TEMP:  53; 6HR MAX TEMP:  67;

MARSHALL       MOSUNNY   74  45  35 W16G22    29.79S
6HR MIN TEMP:  55; 6HR MAX TEMP:  74; 6HR PCP:  0.01;

MOUNT PLEASANT PTSUNNY   71  38  29 W13G21    29.72F
6HR MIN TEMP:  56; 6HR MAX TEMP:  73;

MUSKEGON       MOSUNNY   70  42  36 W12       29.81S
6HR MIN TEMP:  55; 6HR MAX TEMP:  70;

SOUTH HAVEN    SUNNY     65  46  49 NW8       29.85S
$$
MIZ016>042-161900-
NORTHERN LOWER MICHIGAN

CITY           SKY/WX    TMP DP  RH WIND       PRES   REMARKS
ALPENA         CLOUDY    64  44  48 NE17      29.70R
6HR MIN TEMP:  54; 6HR MAX TEMP:  70;

BEAVER ISLAND  PTSUNNY   61  38  41 NW6       29.77S
6HR MIN TEMP:  46; 6HR MAX TEMP:  63;

BELLAIRE       MOSUNNY   64  38  37 W9        29.77S
6HR MIN TEMP:  52; 6HR MAX TEMP:  65;

CADILLAC       PTSUNNY   68  34  27 W14G23    29.74S
6HR MIN TEMP:  56; 6HR MAX TEMP:  70;

CHARLEVOIX     MOSUNNY   61  42  48 W10       29.77S
6HR MIN TEMP:  49; 6HR MAX TEMP:  61;

FRANKFORT      SUNNY     64  41  44 W6        29.79S
GAYLORD        PTSUNNY   65  33  30 NW12G21   29.74S
6HR MIN TEMP:  56; 6HR MAX TEMP:  68;

GRAYLING       MOSUNNY   68  54  60 NW16G23   29.73S
HARBOR SPRINGS PTSUNNY   53  41  64 W13G20    29.75S
HOUGHTON LAKE  CLOUDY    67  37  33 NW12G20   29.74S
6HR MIN TEMP:  56; 6HR MAX TEMP:  70;

MANISTEE       SUNNY     64  41  42 NW10      29.79S
OSCODA         PTSUNNY   65  52  62 S13G23    29.70F
6HR MIN TEMP:  53; 6HR MAX TEMP:  66; 6HR PCP:  0.01;

PELLSTON       PTSUNNY   65  38  36 NW15G25   29.76R
6HR MIN TEMP:  52; 6HR MAX TEMP:  67;

ROGERS CITY    CLOUDY    56  40  56 N7        29.73R
TRAVERSE CITY  MOSUNNY   66  38  35 N10       29.75S
6HR MIN TEMP:  56; 6HR MAX TEMP:  67;

$$
MIZ007>008-015-161900-
EASTERN UPPER MICHIGAN

CITY           SKY/WX    TMP DP  RH WIND       PRES   REMARKS
KINROSS        PTSUNNY   54  39  57 N16G22    29.77R
6HR MIN TEMP:  52; 6HR MAX TEMP:  63;

MACKINAC ISLAN CLOUDY    60  39  47 W10       29.74S
6HR MIN TEMP:  53; 6HR MAX TEMP:  60;

NEWBERRY       CLOUDY    58  37  46 NW13G20   29.77R
6HR MIN TEMP:  51; 6HR MAX TEMP:  61;

S. S. MARIE    PTSUNNY   54  36  50 NW16G30   29.76R
6HR MIN TEMP:  51; 6HR MAX TEMP:  62;

$$
MIZ004>006-011>014-085-161900-
CENTRAL UPPER MICHIGAN

CITY           SKY/WX    TMP DP  RH WIND       PRES   REMARKS
MANISTIQUE     MOSUNNY   64  39  39 N13G21    29.75S
6HR MIN TEMP:  54; 6HR MAX TEMP:  65;

ESCANABA       CLOUDY    66  39  37 NW12G23   29.76S
6HR MIN TEMP:  55; 6HR MAX TEMP:  67;

MENOMINEE      PTSUNNY   67  37  33 NW14G21   29.77F
6HR MIN TEMP:  54; 6HR MAX TEMP:  68;

SAWYER-GWINN   PTSUNNY   50  36  57 NE14      29.80S
MUNISING         N/A     49  36  61 NW15G23   29.82R
6HR MIN TEMP:  46; 6HR MAX TEMP:  50;

$$
MIZ001>003-009>011-084-161900-
WESTERN UPPER MICHIGAN

CITY           SKY/WX    TMP DP  RH WIND       PRES   REMARKS
IRON MOUNTAIN  PTSUNNY   64  37  36 NW22G35   29.78R
6HR MIN TEMP:  53; 6HR MAX TEMP:  65;

HOUGHTON       CLOUDY    52  35  52 NW18G28   29.84R
6HR MIN TEMP:  49; 6HR MAX TEMP:  53;

COPPER HARBOR    N/A     50  38  63 N16       29.82R
6HR MIN TEMP:  45; 6HR MAX TEMP:  50;

IRONWOOD       SUNNY     51  36  56 NW15G22   29.90R
6HR MIN TEMP:  49; 6HR MAX TEMP:  52;

$$

ABBREVIATIONS USED IN REMARKS
   TC - TEMPERATURE IN CELSIUS
  WCI - WIND CHILL INDEX
   HX - HEAT INDEX
  VSB - VISIBILITY




USA.gov is the U.S. government's official web portal to all federal, state and local government web resources and services.